Jackson, KY

5:52 PM EDT on March 27, 2017 (GMT -0400)
Carroll

Weather History for KJKL - October, 2013

Change the Weather History Date:

Monday, October 7, 2013

  Actual Average Record
Temperature  
Mean Temperature 58 °F 61 °F  
Max Temperature 65 °F 71 °F 88 °F (2007)
Min Temperature 50 °F 50 °F 33 °F (2001)
Degree Days  
Heating Degree Days 7 6  
Month to date heating degree days 7 37  
Since 1 July heating degree days 37 89  
Cooling Degree Days 0 1  
Month to date cooling degree days 39 13  
Year to date cooling degree days 1065 1134  
Growing Degree Days 8 (Base 50)    
Moisture  
Dew Point 48 °F    
Average Humidity 70    
Maximum Humidity 100    
Minimum Humidity 40    
Precipitation  
Precipitation 0.43 in 0.10 in 1.82 in (2014)
Month to date precipitation 0.63 0.71  
Year to date precipitation 45.12 37.72  
Snow  
Snow 0.00 in 0.00 in - ()
Month to date snowfall 0.0 0.0  
Since 1 July snowfall 0.0 0.0  
Since 1 September snowfall 0.0 0.0  
Snow Depth 0.00 in    
Sea Level Pressure  
Sea Level Pressure 29.96 in    
Wind  
Wind Speed 3 mph (WNW)    
Max Wind Speed 9 mph    
Max Gust Speed 16 mph    
Visibility 7 miles    
Events Rain    
T = Trace of Precipitation, MM = Missing Value Source: NWS Daily Summary

Daily Weather History Graph

Daily Weather History Graph

Search for Another Location

Airport or City:

Trip Planner

Search our weather history database for the weather conditions in past years. The results will help you decide how hot, cold, wet, or windy it might be!

Date:

Astronomy

Oct. 07, 2013 Rise Set
Actual Time 7:34 AM EDT 7:07 PM EDT
Civil Twilight 7:08 AM EDT 7:33 PM EDT
Nautical Twilight 6:37 AM EDT 8:03 PM EDT
Astronomical Twilight 6:07 AM EDT 8:33 PM EDT
Moon 10:19 AM EDT (10/7) 8:55 PM EDT (10/7)
Length of Visible Light 12h 25m
Length of Day
11h 32m
Waxing Crescent, 8% of the Moon is Illuminated
Oct 7
Waxing Crescent
Oct 11
First Quarter
Oct 18
Full
Oct 26
Last Quarter
Nov 3
New

Hourly Weather History & Observations

Time (EDT) Temp. Dew Point Humidity Pressure Visibility Wind Dir Wind Speed Gust Speed Precip Events Conditions
12:07 AM 53.6 °F 53.6 °F 100% 29.91 in 6.0 mi Variable 4.6 mph - 0.04 in Rain Light Rain
12:53 AM 54.0 °F 53.1 °F 97% 29.87 in 5.0 mi Variable 3.5 mph - 0.09 in Rain Light Rain
1:17 AM 53.6 °F 53.6 °F 100% 29.91 in 1.8 mi Calm Calm - 0.03 in Rain Light Rain
1:24 AM 53.6 °F 53.6 °F 100% 29.91 in 1.2 mi Calm Calm - 0.04 in Rain Light Rain
1:27 AM 53.6 °F 51.8 °F 94% 29.91 in 2.0 mi Calm Calm - 0.04 in Rain Rain
1:36 AM 53.6 °F 51.8 °F 94% 29.92 in 1.5 mi Calm Calm - 0.08 in Rain Rain
1:53 AM 53.1 °F 52.0 °F 96% 29.89 in 2.0 mi Calm Calm - 0.12 in Rain Rain
2:02 AM 53.6 °F 51.8 °F 94% 29.93 in 3.0 mi Variable 3.5 mph - 0.02 in Rain Rain
2:53 AM 53.1 °F 52.0 °F 96% 29.89 in 2.5 mi Calm Calm - 0.10 in Rain Light Rain
3:08 AM 53.6 °F 51.8 °F 94% 29.91 in 1.5 mi Calm Calm - 0.03 in Rain Heavy Rain
3:53 AM 53.1 °F 52.0 °F 96% 29.86 in 1.0 mi Calm Calm - 0.06 in Rain Light Rain
4:00 AM 53.6 °F 51.8 °F 94% 29.90 in 0.8 mi Calm Calm - 0.01 in Rain Rain
4:24 AM 53.6 °F 51.8 °F 94% 29.90 in 1.2 mi Calm Calm - 0.12 in Rain Rain
4:35 AM 53.6 °F 51.8 °F 94% 29.90 in 2.0 mi Variable 3.5 mph - 0.13 in Rain Light Rain
4:43 AM 53.6 °F 51.8 °F 94% 29.90 in 6.0 mi Variable 3.5 mph - 0.13 in Rain Light Rain
4:53 AM 53.1 °F 52.0 °F 96% 29.87 in 2.5 mi Variable 3.5 mph - 0.14 in Rain Light Rain
5:01 AM 53.6 °F 51.8 °F 94% 29.90 in 5.0 mi Variable 3.5 mph - 0.01 in Rain Light Rain
5:49 AM 53.6 °F 51.8 °F 94% 29.91 in 10.0 mi WNW 5.8 mph - 0.01 in   Overcast
5:50 AM 53.1 °F 51.1 °F 93% 29.88 in 10.0 mi WNW 5.8 mph - 0.01 in   Overcast
6:38 AM 51.8 °F 50.0 °F 94% 29.92 in 10.0 mi West 3.5 mph - N/A   Overcast
6:53 AM 52.0 °F 50.0 °F 93% 29.90 in 10.0 mi West 4.6 mph - N/A   Mostly Cloudy
7:10 AM 51.8 °F 50.0 °F 94% 29.94 in 10.0 mi Variable 4.6 mph - N/A   Overcast
7:25 AM 51.8 °F 48.2 °F 88% 29.94 in 10.0 mi Variable 4.6 mph - N/A   Mostly Cloudy
7:53 AM 51.1 °F 50.0 °F 96% 29.92 in 9.0 mi Calm Calm - N/A   Mostly Cloudy
8:28 AM 51.8 °F 48.2 °F 88% 29.97 in 10.0 mi Variable 3.5 mph - N/A   Mostly Cloudy
8:36 AM 51.8 °F 48.2 °F 88% 29.97 in 10.0 mi Variable 3.5 mph - N/A   Mostly Cloudy
8:53 AM 52.0 °F 50.0 °F 93% 29.95 in 10.0 mi Variable 3.5 mph - N/A   Mostly Cloudy
9:53 AM 52.0 °F 48.9 °F 89% 29.99 in 10.0 mi Calm Calm - N/A   Overcast
10:28 AM 55.4 °F 48.2 °F 77% 30.01 in 10.0 mi WSW 5.8 mph - N/A   Partly Cloudy
10:53 AM 55.9 °F 48.0 °F 75% 30.00 in 10.0 mi Variable 3.5 mph - N/A   Clear
11:53 AM 57.9 °F 45.0 °F 62% 30.01 in 10.0 mi Variable 5.8 mph - N/A   Clear
12:53 PM 57.9 °F 44.1 °F 60% 30.01 in 10.0 mi WNW 6.9 mph - N/A   Partly Cloudy
1:53 PM 63.0 °F 44.1 °F 50% 30.00 in 10.0 mi Variable 5.8 mph - N/A   Mostly Cloudy
2:53 PM 63.0 °F 43.0 °F 48% 29.99 in 10.0 mi Variable 3.5 mph - N/A   Clear
3:53 PM 64.9 °F 43.0 °F 45% 30.00 in 10.0 mi Calm Calm - N/A   Clear
4:53 PM 64.0 °F 39.9 °F 41% 30.01 in 10.0 mi WNW 6.9 mph - N/A   Clear
5:53 PM 63.0 °F 41.0 °F 45% 30.02 in 10.0 mi NNW 4.6 mph - N/A   Clear
6:53 PM 59.0 °F 42.1 °F 53% 30.04 in 10.0 mi Variable 3.5 mph - N/A   Clear
7:53 PM 57.0 °F 42.1 °F 57% 30.08 in 10.0 mi Variable 4.6 mph - N/A   Clear
8:53 PM 55.0 °F 42.1 °F 62% 30.10 in 10.0 mi Variable 3.5 mph - N/A   Clear
9:53 PM 55.0 °F 42.1 °F 62% 30.11 in 10.0 mi Variable 4.6 mph - N/A   Clear
10:53 PM 52.0 °F 43.0 °F 71% 30.13 in 10.0 mi Calm Calm - N/A   Clear
11:53 PM 51.1 °F 43.0 °F 74% 30.14 in 10.0 mi Calm Calm - N/A   Clear